Socorro, NM

6:33 PM MDT on June 25, 2017 (GMT -0600)
Socorro Municipal

Weather History for KONM - June, 2013

Change the Weather History Date:

Wednesday, June 19, 2013

  Actual Average Record
Temperature  
Mean Temperature 82 °F -  
Max Temperature 102 °F 92 °F 102 °F (2013)
Min Temperature 61 °F 56 °F 61 °F (2013)
Cooling Degree Days 16    
Growing Degree Days 32 (Base 50)    
Moisture  
Dew Point 28 °F    
Average Humidity 17    
Maximum Humidity 34    
Minimum Humidity 4    
Precipitation  
Precipitation 0.00 in - - ()
Sea Level Pressure  
Sea Level Pressure 29.94 in    
Wind  
Wind Speed 8 mph (SSW)    
Max Wind Speed 20 mph    
Max Gust Speed 32 mph    
Visibility 10 miles    
Events      
Averages and records for this station are not official NWS values.
T = Trace of Precipitation, MM = Missing Value Source: NWS Daily Summary

Daily Weather History Graph

Daily Weather History Graph

Search for Another Location

Airport or City:

Trip Planner

Search our weather history database for the weather conditions in past years. The results will help you decide how hot, cold, wet, or windy it might be!

Date:

Astronomy

Jun. 19, 2013 Rise Set
Actual Time 5:56 AM MDT 8:21 PM MDT
Civil Twilight 5:27 AM MDT 8:50 PM MDT
Nautical Twilight 4:51 AM MDT 9:27 PM MDT
Astronomical Twilight 4:11 AM MDT 10:06 PM MDT
Moon 4:24 PM MDT (6/19) 2:34 AM MDT (6/19)
Length of Visible Light 15h 23m
Length of Day
14h 25m
Waxing Gibbous, 81% of the Moon is Illuminated
Jun 19
Waxing Gibbous
Jun 23
Full
Jun 29
Last Quarter
Jul 8
New
Jul 15
First Quarter

Hourly Weather History & Observations

Time (MDT) Temp. Dew Point Humidity Pressure Visibility Wind Dir Wind Speed Gust Speed Precip Events Conditions
12:15 AM 75.4 °F 39.0 °F 27% 29.96 in 10.0 mi ESE 4.6 mph - N/A   Clear
12:35 AM 75.9 °F 40.6 °F 28% 29.97 in 10.0 mi SSE 4.6 mph - N/A   Clear
12:55 AM 72.5 °F 40.3 °F 31% 29.96 in 10.0 mi WSW 3.5 mph - N/A   Clear
1:15 AM 72.5 °F 40.6 °F 32% 29.96 in 10.0 mi West 6.9 mph - N/A   Clear
1:35 AM 70.9 °F 39.9 °F 32% 29.96 in 10.0 mi Calm Calm - N/A   Clear
1:55 AM 71.4 °F 39.2 °F 31% 29.97 in 10.0 mi SE 4.6 mph - N/A   Clear
2:15 AM 66.9 °F 37.0 °F 33% 29.96 in 10.0 mi Calm Calm - N/A   Clear
2:35 AM 66.4 °F 37.2 °F 34% 29.96 in 10.0 mi West 3.5 mph - N/A   Clear
2:55 AM 66.7 °F 36.1 °F 32% 29.96 in 10.0 mi Calm Calm - N/A   Clear
3:15 AM 63.5 °F 34.3 °F 34% 29.97 in 10.0 mi Calm Calm - N/A   Clear
3:35 AM 62.4 °F 33.3 °F 34% 29.97 in 10.0 mi WSW 5.8 mph - N/A   Clear
3:55 AM 63.5 °F 32.2 °F 31% 29.98 in 10.0 mi WNW 3.5 mph - N/A   Clear
4:15 AM 62.8 °F 30.9 °F 30% 29.98 in 10.0 mi West 5.8 mph - N/A   Clear
4:35 AM 62.8 °F 28.4 °F 27% 29.98 in 10.0 mi West 4.6 mph - N/A   Clear
4:55 AM 62.8 °F 28.8 °F 28% 29.98 in 10.0 mi Calm Calm - N/A   Clear
5:15 AM 61.2 °F 30.7 °F 32% 29.99 in 10.0 mi West 5.8 mph - N/A   Clear
5:35 AM 61.9 °F 30.2 °F 30% 29.99 in 10.0 mi WSW 4.6 mph - N/A   Clear
5:55 AM 62.8 °F 32.0 °F 32% 30.00 in 10.0 mi WSW 5.8 mph - N/A   Clear
6:15 AM 63.9 °F 32.0 °F 30% 30.00 in 10.0 mi WSW 4.6 mph - N/A   Clear
6:35 AM 65.7 °F 31.6 °F 28% 30.00 in 10.0 mi WSW 6.9 mph - N/A   Clear
6:55 AM 68.7 °F 32.9 °F 27% 30.01 in 10.0 mi West 3.5 mph - N/A   Clear
7:15 AM 70.7 °F 32.0 °F 24% 30.01 in 10.0 mi Calm Calm - N/A   Clear
7:35 AM 73.4 °F 35.2 °F 25% 30.02 in 10.0 mi Calm Calm - N/A   Clear
7:55 AM 75.0 °F 41.4 °F 30% 30.02 in 10.0 mi Calm Calm - N/A   Clear
8:15 AM 76.3 °F 45.5 °F 33% 30.02 in 10.0 mi SSE 4.6 mph - N/A   Clear
8:35 AM 77.9 °F 46.4 °F 33% 30.03 in 10.0 mi SSE 8.1 mph - N/A   Clear
8:55 AM 78.8 °F 47.1 °F 33% 30.03 in 10.0 mi SSE 10.4 mph - N/A   Clear
9:15 AM 80.6 °F 46.4 °F 30% 30.02 in 10.0 mi SSE 9.2 mph - N/A   Clear
9:35 AM 82.4 °F 47.8 °F 30% 30.02 in 10.0 mi SE 11.5 mph - N/A   Clear
9:55 AM 83.3 °F 49.3 °F 31% 30.02 in 10.0 mi SE 12.7 mph - N/A   Clear
10:15 AM 84.6 °F 48.6 °F 29% 30.01 in 10.0 mi SE 15.0 mph 19.6 mph N/A   Clear
10:35 AM 86.7 °F 45.0 °F 23% 30.00 in 10.0 mi SSE 16.1 mph - N/A   Clear
10:55 AM 88.9 °F 37.8 °F 16% 30.00 in 10.0 mi SSE 18.4 mph 23.0 mph N/A   Clear
11:15 AM 90.9 °F 33.8 °F 13% 29.99 in 10.0 mi SE 19.6 mph 25.3 mph N/A   Clear
11:35 AM 93.7 °F 27.1 °F 9% 29.98 in 10.0 mi SSE 19.6 mph 27.6 mph N/A   Clear
11:55 AM 95.5 °F 22.8 °F 7% 29.98 in 10.0 mi South 17.3 mph 27.6 mph N/A   Clear
12:15 PM 95.5 °F 25.2 °F 8% 29.97 in 10.0 mi South 17.3 mph 28.8 mph N/A   Clear
12:35 PM 96.3 °F 25.2 °F 8% 29.97 in 10.0 mi South 15.0 mph 25.3 mph N/A   Clear
12:55 PM 97.5 °F 22.8 °F 7% 29.96 in 10.0 mi SSW 11.5 mph 25.3 mph N/A   Clear
1:15 PM 97.9 °F 24.1 °F 7% 29.95 in 10.0 mi SSW 13.8 mph 21.9 mph N/A   Clear
1:35 PM 97.9 °F 22.1 °F 7% 29.94 in 10.0 mi SSW 11.5 mph 25.3 mph N/A   Clear
1:55 PM 98.4 °F 21.6 °F 6% 29.93 in 10.0 mi SE 10.4 mph 19.6 mph N/A   Clear
2:15 PM 100.0 °F 21.6 °F 6% 29.92 in 10.0 mi South 18.4 mph 21.9 mph N/A   Clear
2:35 PM 100.6 °F 22.1 °F 6% 29.91 in 10.0 mi SSW 17.3 mph 27.6 mph N/A   Clear
2:55 PM 101.5 °F 23.9 °F 6% 29.90 in 10.0 mi South 19.6 mph 26.5 mph N/A   Clear
3:15 PM 100.2 °F 23.7 °F 7% 29.89 in 10.0 mi South 19.6 mph 25.3 mph N/A   Clear
3:35 PM 101.3 °F 22.1 °F 6% 29.89 in 10.0 mi WSW 15.0 mph 32.2 mph N/A   Clear
3:55 PM 102.6 °F 19.9 °F 5% 29.88 in 10.0 mi WSW 19.6 mph 26.5 mph N/A   Clear
4:15 PM 100.2 °F 19.6 °F 6% 29.87 in 10.0 mi South 8.1 mph 26.5 mph N/A   Clear
4:35 PM 101.5 °F 18.3 °F 5% 29.87 in 10.0 mi WSW 12.7 mph 25.3 mph N/A   Clear
4:55 PM 101.3 °F 16.3 °F 5% 29.86 in 10.0 mi SW 8.1 mph 24.2 mph N/A   Clear
5:15 PM 101.3 °F 16.5 °F 5% 29.85 in 10.0 mi SSW 11.5 mph - N/A   Clear
5:35 PM 100.6 °F 14.9 °F 4% 29.85 in 10.0 mi SSW 16.1 mph - N/A   Clear
5:55 PM 99.5 °F 14.0 °F 4% 29.85 in 10.0 mi SSW 11.5 mph 18.4 mph N/A   Clear
6:15 PM 99.3 °F 14.2 °F 5% 29.84 in 10.0 mi SSW 16.1 mph 26.5 mph N/A   Clear
6:35 PM 98.8 °F 17.4 °F 5% 29.84 in 10.0 mi SSW 16.1 mph 23.0 mph N/A   Clear
6:55 PM 97.2 °F 18.1 °F 6% 29.85 in 10.0 mi SSW 12.7 mph - N/A   Clear
7:15 PM 96.8 °F 18.0 °F 6% 29.85 in 10.0 mi SSW 16.1 mph - N/A   Clear
7:35 PM 95.9 °F 17.2 °F 6% 29.85 in 10.0 mi SSW 13.8 mph 20.7 mph N/A   Clear
7:55 PM 94.1 °F 16.9 °F 6% 29.85 in 10.0 mi SW 13.8 mph - N/A   Clear
8:15 PM 91.6 °F 16.7 °F 6% 29.86 in 10.0 mi WSW 11.5 mph - N/A   Clear
8:35 PM 90.3 °F 16.9 °F 7% 29.87 in 10.0 mi SW 11.5 mph - N/A   Clear
8:55 PM 89.4 °F 18.5 °F 7% 29.88 in 10.0 mi SW 11.5 mph - N/A   Clear
9:15 PM 87.6 °F 19.2 °F 8% 29.89 in 10.0 mi SW 10.4 mph - N/A   Clear
9:35 PM 85.6 °F 19.2 °F 9% 29.90 in 10.0 mi SW 8.1 mph - N/A   Clear
9:55 PM 82.4 °F 19.0 °F 10% 29.91 in 10.0 mi WSW 9.2 mph - N/A   Clear
10:15 PM 81.5 °F 18.9 °F 10% 29.92 in 10.0 mi West 10.4 mph - N/A   Clear
10:35 PM 82.4 °F 16.7 °F 9% 29.92 in 10.0 mi WSW 8.1 mph - N/A   Clear
10:55 PM 81.5 °F 16.5 °F 9% 29.93 in 10.0 mi WSW 8.1 mph - N/A   Clear
11:15 PM 80.6 °F 16.7 °F 9% 29.92 in 10.0 mi WSW 8.1 mph - N/A   Clear
11:35 PM 82.0 °F 17.6 °F 9% 29.93 in 10.0 mi West 10.4 mph - N/A   Clear
11:55 PM 79.2 °F 18.3 °F 10% 29.93 in 10.0 mi WSW 10.4 mph - N/A   Clear